Location: Lake Sonoma
(38.7200°N, 123.0564°W)
Time: 19:03:04
(UTC-07:00)

ISS - Visible Passes

Search period start: 20 September 2014 00:00
Search period end: 30 September 2014 00:00
Orbit: 413 x 417 km, 51.6° (Epoch: 20 September)

Date Brightness Start Highest point End Pass type
(mag) Time Alt. Az. Time Alt. Az. Time Alt. Az.
20 Sep -0.6 05:01:03 13° N 05:01:03 13° N 05:02:14 10° NNE visible
24 Sep -0.7 06:34:51 10° NNW 06:37:11 17° NNE 06:39:30 10° ENE visible
25 Sep -0.5 05:46:11 10° NNW 05:47:55 13° NNE 05:49:39 10° NE visible
26 Sep -0.3 04:58:01 11° N 04:58:34 11° NNE 04:59:32 10° NNE visible
26 Sep -1.7 06:33:00 10° NW 06:36:04 33° NNE 06:39:07 10° E visible
27 Sep -1.0 05:44:08 10° NNW 05:46:50 22° NNE 05:49:31 10° E visible
28 Sep -0.7 04:57:12 16° NNE 04:57:30 16° NNE 04:59:42 10° ENE visible
28 Sep -3.3 06:31:16 10° NW 06:34:36 88° NE 06:37:55 10° SE visible
29 Sep -2.4 05:43:23 20° NNW 05:45:24 48° NE 05:48:38 10° ESE visible
